| time (UTC) | temp C | wind direction | speed KPH | gust KPH | rain 1hr cm | rain 24hr cm | rain mn cm | humidity % | barometer mb |
| 20260509100618 | 20 | 226 | 0.0 | 3.2 | 0.00 | 0.00 | 0.00 | 17 | 1008.0 |
| 20260509095631 | 20 | 270 | 0.0 | 0.0 | 0.00 | 0.00 | 0.00 | 17 | 1008.0 |
| 20260509093617 | 21 | 225 | 0.0 | 0.0 | 0.00 | 0.00 | 0.00 | 17 | 1008.0 |
| 20260509092632 | 22 | 225 | 0.0 | 3.2 | 0.00 | 0.00 | 0.00 | 16 | 1008.0 |
| 20260509091132 | 23 | 256 | 3.2 | 8.0 | 0.00 | 0.00 | 0.00 | 16 | 1008.0 |
| 20260509090616 | 23 | 225 | 0.0 | 3.2 | 0.00 | 0.00 | 0.00 | 16 | 1008.0 |
| 20260509085632 | 24 | 225 | 0.0 | 3.2 | 0.00 | 0.00 | 0.00 | 15 | 1008.0 |
| 20260509084130 | 25 | 225 | 0.0 | 3.2 | 0.00 | 0.00 | 0.00 | 15 | 1009.0 |
| 20260509083616 | 24 | 225 | 0.0 | 3.2 | 0.00 | 0.00 | 0.00 | 15 | 1008.0 |
| 20260509082631 | 24 | 225 | 0.0 | 4.8 | 0.00 | 0.00 | 0.00 | 15 | 1008.0 |
| 20260509080618 | 23 | 225 | 0.0 | 3.2 | 0.00 | 0.00 | 0.00 | 15 | 1008.0 |
| 20260509075631 | 24 | 225 | 0.0 | 4.8 | 0.00 | 0.00 | 0.00 | 15 | 1008.0 |
| 20260509074132 | 25 | 180 | 1.6 | 3.2 | 0.00 | 0.00 | 0.00 | 15 | 1008.0 |
| 20260509073617 | 25 | 315 | 0.0 | 4.8 | 0.00 | 0.00 | 0.00 | 15 | 1007.0 |
| 20260509072631 | 25 | 315 | 0.0 | 0.0 | 0.00 | 0.00 | 0.00 | 15 | 1007.0 |
| 20260509071130 | 26 | 270 | 0.0 | 3.2 | 0.00 | 0.00 | 0.00 | 15 | 1007.0 |
| 20260509070617 | 26 | 270 | 0.0 | 3.2 | 0.00 | 0.00 | 0.00 | 15 | 1007.0 |
| 20260509065630 | 25 | 270 | 3.2 | 4.8 | 0.00 | 0.00 | 0.00 | 15 | 1007.0 |
| 20260509064132 | 26 | 315 | 3.2 | 4.8 | 0.00 | 0.00 | 0.00 | 15 | 1007.0 |
| 20260509063617 | 26 | 315 | 0.0 | 0.0 | 0.00 | 0.00 | 0.00 | 15 | 1007.0 |
| 20260509062632 | 26 | 315 | 0.0 | 0.0 | 0.00 | 0.00 | 0.00 | 15 | 1007.0 |
| 20260509061131 | 26 | 315 | 0.0 | 3.2 | 0.00 | 0.00 | 0.00 | 15 | 1007.0 |
| 20260509060616 | 26 | 315 | 0.0 | 0.0 | 0.00 | 0.00 | 0.00 | 15 | 1007.0 |
| 20260509055632 | 26 | 315 | 0.0 | 9.7 | 0.00 | 0.00 | 0.00 | 15 | 1007.0 |
| 20260509054130 | 27 | 315 | 0.0 | 3.2 | 0.00 | 0.00 | 0.00 | 14 | 1006.0 |
| 20260509053616 | 26 | 225 | 0.0 | 3.2 | 0.00 | 0.00 | 0.00 | 14 | 1006.0 |
| 20260509050616 | 26 | 270 | 0.0 | 3.2 | 0.00 | 0.00 | 0.00 | 15 | 1007.0 |
| 20260509044132 | 23 | 237 | 0.0 | 3.2 | 0.00 | 0.00 | 0.00 | 15 | 1007.0 |
| 20260509043617 | 25 | 315 | 1.6 | 8.0 | 0.00 | 0.00 | 0.00 | 15 | 1007.0 |
| 20260509042631 | 25 | 315 | 0.0 | 3.2 | 0.00 | 0.00 | 0.00 | 15 | 1007.0 |
| 20260509040617 | 23 | 180 | 0.0 | 3.2 | 0.00 | 0.00 | 0.00 | 15 | 1007.0 |
| 20260509035630 | 23 | 231 | 0.0 | 4.8 | 0.00 | 0.00 | 0.00 | 16 | 1007.0 |
| 20260509034130 | 23 | 295 | 4.8 | 14.5 | 0.00 | 0.00 | 0.00 | 16 | 1007.0 |
| 20260509033616 | 23 | 315 | 3.2 | 11.3 | 0.00 | 0.00 | 0.00 | 16 | 1007.0 |
| 20260509032631 | 23 | 274 | 0.0 | 8.0 | 0.00 | 0.00 | 0.00 | 16 | 1007.0 |
| 20260509031131 | 23 | 292 | 0.0 | 4.8 | 0.00 | 0.00 | 0.00 | 17 | 1008.0 |
| 20260509030617 | 23 | 270 | 0.0 | 3.2 | 0.00 | 0.00 | 0.00 | 16 | 1008.0 |
| 20260509025630 | 22 | 270 | 0.0 | 0.0 | 0.00 | 0.00 | 0.00 | 19 | 1008.0 |
| 20260509023616 | 21 | 292 | 9.7 | 19.3 | 0.00 | 0.00 | 0.00 | 19 | 1008.0 |
| 20260509021131 | 21 | 271 | 3.2 | 4.8 | 0.00 | 0.00 | 0.00 | 22 | 1008.0 |
| 20260509020616 | 20 | 270 | 3.2 | 4.8 | 0.00 | 0.00 | 0.00 | 22 | 1008.0 |
| 20260509015631 | 20 | 135 | 0.0 | 3.2 | 0.00 | 0.00 | 0.00 | 22 | 1008.0 |
| 20260509013615 | 20 | 270 | 0.0 | 0.0 | 0.00 | 0.00 | 0.00 | 23 | 1008.0 |
| 20260509011131 | 18 | 295 | 3.2 | 4.8 | 0.00 | 0.00 | 0.00 | 24 | 1009.0 |
| 20260509010617 | 18 | 283 | 4.8 | 4.8 | 0.00 | 0.00 | 0.00 | 24 | 1008.0 |
| 20260509005630 | 18 | 287 | 8.0 | 8.0 | 0.00 | 0.00 | 0.00 | 24 | 1008.0 |
| 20260509004131 | 18 | 283 | 3.2 | 8.0 | 0.00 | 0.00 | 0.00 | 25 | 1008.0 |
| 20260509003617 | 17 | 310 | 3.2 | 8.0 | 0.00 | 0.00 | 0.00 | 25 | 1008.0 |
| 20260509000616 | 17 | 315 | 0.0 | 0.0 | 0.00 | 0.00 | 0.00 | 28 | 1008.0 |
| 20260508234131 | 16 | 273 | 4.8 | 4.8 | 0.00 | 0.00 | 0.00 | 29 | 1008.0 |
| 20260508233616 | 17 | 305 | 4.8 | 12.9 | 0.00 | 0.00 | 0.00 | 28 | 1008.0 |
| 20260508232630 | 16 | 270 | 0.0 | 3.2 | 0.00 | 0.00 | 0.00 | 31 | 1008.0 |
| 20260508231131 | 16 | 225 | 3.2 | 8.0 | 0.00 | 0.00 | 0.00 | 32 | 1008.0 |
| 20260508230616 | 16 | 305 | 8.0 | 11.3 | 0.00 | 0.00 | 0.00 | 32 | 1008.0 |
| 20260508225631 | 16 | 315 | 3.2 | 9.7 | 0.00 | 0.00 | 0.00 | 33 | 1008.0 |
| 20260508224130 | 15 | 315 | 9.7 | 8.0 | 0.00 | 0.00 | 0.00 | 34 | 1008.0 |
| 20260508223615 | 15 | 287 | 8.0 | 11.3 | 0.00 | 0.00 | 0.00 | 35 | 1009.0 |
| 20260508222629 | 15 | 306 | 8.0 | 9.7 | 0.00 | 0.00 | 0.00 | 35 | 1009.0 |
| 20260508221130 | 15 | 310 | 3.2 | 9.7 | 0.00 | 0.00 | 0.00 | 35 | 1008.0 |
| 20260508220617 | 15 | 295 | 8.0 | 8.0 | 0.00 | 0.00 | 0.00 | 35 | 1008.0 |
| 20260508215630 | 15 | 315 | 4.8 | 4.8 | 0.00 | 0.00 | 0.00 | 35 | 1008.0 |
| 20260508214130 | 15 | 270 | 3.2 | 3.2 | 0.00 | 0.00 | 0.00 | 36 | 1008.0 |
| 20260508213617 | 14 | 315 | 0.0 | 0.0 | 0.00 | 0.00 | 0.00 | 36 | 1008.0 |
| 20260508212630 | 14 | 315 | 3.2 | 8.0 | 0.00 | 0.00 | 0.00 | 36 | 1008.0 |
| 20260508211129 | 14 | 289 | 4.8 | 8.0 | 0.00 | 0.00 | 0.00 | 36 | 1007.0 |
| 20260508210616 | 14 | 315 | 3.2 | 4.8 | 0.00 | 0.00 | 0.00 | 35 | 1007.0 |
| 20260508205629 | 14 | 306 | 3.2 | 8.0 | 0.00 | 0.00 | 0.00 | 35 | 1007.0 |
| 20260508203618 | 14 | 285 | 4.8 | 8.0 | 0.00 | 0.00 | 0.00 | 35 | 1007.0 |
| 20260508202633 | 14 | 315 | 3.2 | 8.0 | 0.00 | 0.00 | 0.00 | 35 | 1007.0 |
| 20260508201133 | 14 | 315 | 8.0 | 4.8 | 0.00 | 0.00 | 0.00 | 35 | 1007.0 |
| 20260508200618 | 14 | 299 | 3.2 | 9.7 | 0.00 | 0.00 | 0.00 | 35 | 1007.0 |
| 20260508195633 | 14 | 315 | 0.0 | 3.2 | 0.00 | 0.00 | 0.00 | 35 | 1007.0 |
| 20260508194133 | 14 | 315 | 0.0 | 0.0 | 0.00 | 0.00 | 0.00 | 35 | 1006.0 |
| 20260508193617 | 14 | 225 | 0.0 | 3.2 | 0.00 | 0.00 | 0.00 | 35 | 1006.0 |
| 20260508192632 | 14 | 225 | 0.0 | 0.0 | 0.00 | 0.00 | 0.00 | 35 | 1006.0 |
| 20260508191133 | 15 | 232 | 3.2 | 8.0 | 0.00 | 0.00 | 0.00 | 33 | 1006.0 |
| 20260508190619 | 15 | 267 | 0.0 | 4.8 | 0.00 | 0.00 | 0.00 | 32 | 1006.0 |
| 20260508185632 | 15 | 315 | 4.8 | 11.3 | 0.00 | 0.00 | 0.00 | 30 | 1006.0 |
| 20260508184132 | 15 | 270 | 0.0 | 0.0 | 0.00 | 0.00 | 0.00 | 29 | 1006.0 |
| 20260508183619 | 15 | 308 | 0.0 | 4.8 | 0.00 | 0.00 | 0.00 | 29 | 1006.0 |
| 20260508182632 | 15 | 315 | 0.0 | 0.0 | 0.00 | 0.00 | 0.00 | 28 | 1006.0 |
| 20260508181132 | 16 | 270 | 0.0 | 0.0 | 0.00 | 0.00 | 0.00 | 27 | 1005.0 |
| 20260508180619 | 16 | 270 | 0.0 | 3.2 | 0.00 | 0.00 | 0.00 | 27 | 1005.0 |
| 20260508175633 | 16 | 270 | 0.0 | 4.8 | 0.00 | 0.00 | 0.00 | 27 | 1005.0 |
| 20260508174132 | 16 | 288 | 3.2 | 8.0 | 0.00 | 0.00 | 0.00 | 27 | 1005.0 |
| 20260508173617 | 15 | 308 | 4.8 | 4.8 | 0.00 | 0.00 | 0.00 | 26 | 1005.0 |
| 20260508172632 | 15 | 225 | 0.0 | 0.0 | 0.00 | 0.00 | 0.00 | 26 | 1005.0 |
| 20260508171132 | 16 | 225 | 0.0 | 0.0 | 0.00 | 0.00 | 0.00 | 26 | 1005.0 |
| 20260508170619 | 16 | 225 | 0.0 | 0.0 | 0.00 | 0.00 | 0.00 | 26 | 1005.0 |
| 20260508165633 | 15 | 270 | 0.0 | 4.8 | 0.00 | 0.00 | 0.00 | 26 | 1005.0 |
| 20260508164132 | 16 | 208 | 0.0 | 3.2 | 0.00 | 0.00 | 0.00 | 27 | 1005.0 |
| 20260508163619 | 16 | 270 | 0.0 | 9.7 | 0.00 | 0.00 | 0.00 | 27 | 1005.0 |
| 20260508162632 | 16 | 270 | 0.0 | 3.2 | 0.00 | 0.00 | 0.00 | 27 | 1005.0 |
| 20260508161132 | 16 | 270 | 0.0 | 4.8 | 0.00 | 0.00 | 0.00 | 27 | 1005.0 |
| 20260508160618 | 16 | 270 | 0.0 | 0.0 | 0.00 | 0.00 | 0.00 | 27 | 1005.0 |
| 20260508155633 | 16 | 270 | 3.2 | 3.2 | 0.00 | 0.00 | 0.00 | 26 | 1004.2 |
| 20260508154131 | 16 | 315 | 3.2 | 4.8 | 0.00 | 0.00 | 0.00 | 26 | 1004.0 |
| 20260508153618 | 16 | 315 | 0.0 | 3.2 | 0.00 | 0.00 | 0.00 | 26 | 1004.0 |
| 20260508152631 | 16 | 315 | 0.0 | 4.8 | 0.00 | 0.00 | 0.00 | 26 | 1004.0 |
| 20260508151131 | 16 | 315 | 0.0 | 3.2 | 0.00 | 0.00 | 0.00 | 26 | 1004.0 |
| 20260508150618 | 16 | 315 | 0.0 | 3.2 | 0.00 | 0.00 | 0.00 | 26 | 1004.0 |
| 20260508145632 | 16 | 315 | 0.0 | 4.8 | 0.00 | 0.00 | 0.00 | 25 | 1004.0 |
| 20260508144133 | 16 | 315 | 0.0 | 0.0 | 0.00 | 0.00 | 0.00 | 26 | 1004.2 |
| 20260508143617 | 16 | 315 | 0.0 | 0.0 | 0.00 | 0.00 | 0.00 | 26 | 1004.0 |
| 20260508142632 | 16 | 315 | 0.0 | 0.0 | 0.00 | 0.00 | 0.00 | 26 | 1004.0 |
| 20260508140617 | 16 | 315 | 0.0 | 3.2 | 0.00 | 0.00 | 0.00 | 25 | 1004.0 |
| 20260508134132 | 17 | 285 | 0.0 | 8.0 | 0.00 | 0.00 | 0.00 | 25 | 1004.0 |
| 20260508133617 | 17 | 306 | 0.0 | 4.8 | 0.00 | 0.00 | 0.00 | 25 | 1004.0 |
| 20260508132632 | 17 | 296 | 3.2 | 4.8 | 0.00 | 0.00 | 0.00 | 26 | 1004.0 |
| 20260508130618 | 17 | 270 | 0.0 | 4.8 | 0.00 | 0.00 | 0.00 | 26 | 1004.0 |
| 20260508124132 | 17 | 315 | 0.0 | 0.0 | 0.00 | 0.00 | 0.00 | 26 | 1004.0 |
| 20260508123618 | 17 | 315 | 0.0 | 4.8 | 0.00 | 0.00 | 0.00 | 26 | 1004.0 |
| 20260508122632 | 17 | 315 | 0.0 | 8.0 | 0.00 | 0.00 | 0.00 | 26 | 1004.0 |
| 20260508121131 | 17 | 296 | 3.2 | 9.7 | 0.00 | 0.00 | 0.00 | 27 | 1003.0 |
| 20260508120618 | 17 | 304 | 8.0 | 12.9 | 0.00 | 0.00 | 0.00 | 28 | 1003.0 |
| 20260508115631 | 17 | 270 | 0.0 | 3.2 | 0.00 | 0.00 | 0.00 | 29 | 1003.0 |
| 20260508114132 | 17 | 270 | 0.0 | 8.0 | 0.00 | 0.00 | 0.00 | 31 | 1003.0 |
| 20260508113618 | 17 | 270 | 3.2 | 3.2 | 0.00 | 0.00 | 0.00 | 31 | 1002.0 |
| 20260508111131 | 18 | 316 | 0.0 | 4.8 | 0.00 | 0.00 | 0.00 | 33 | 1002.0 |
| 20260508110617 | 18 | 304 | 4.8 | 3.2 | 0.00 | 0.00 | 0.00 | 33 | 1001.0 |
| 20260508105631 | 18 | 270 | 0.0 | 4.8 | 0.00 | 0.00 | 0.00 | 33 | 1001.0 |
| 20260508104131 | 18 | 270 | 0.0 | 8.0 | 0.00 | 0.00 | 0.00 | 33 | 1001.0 |
| 20260508103617 | 18 | 270 | 0.0 | 3.2 | 0.00 | 0.00 | 0.00 | 33 | 1001.0 |
| 20260508102632 | 19 | 225 | 0.0 | 3.2 | 0.00 | 0.00 | 0.00 | 33 | 1001.0 |